Resultados

1500 Electronico
Fecha Serie Viento Presión Humedad Temperatura
15-09-2018 Final_A
Puesto Andanivel Nombre Dia Mes Año Pais Marca
01 Pensa Natalio Emmanuel 19 8 1989 QUIRO - 3.55.27 -
02 Ortiz Luis Carlos Antonio 18 3 1990 QUIRO - 3.56.19 -
03 Ruiz Antonio 13 9 1994 EMCDC - 3.57.27 -
04 Vitarello Daniel 4 10 1992 CADAF - 3.59.50 -
05 Zavala Walter Hernan 28 1 1988 AAMTE - 3.59.84 -
06 Suarez Juan Cruz 27 12 1994 AAMTE - 4.00.00 -
07 Ocampo Lautaro 17 2 1998 VYR ASA 4.01.34 -
08 Bouvet Leonardo 7 7 1992 ATERU ARDA 4.01.86 -
09 Benitez Gustavo 26 3 1998 ATERU ARDA 4.03.03 -
10 Rosales Rodrigo Javier 5 1 1997 FTTAF - 4.03.81 -
11 Toth Mauricio 5 9 2001 MFV - 4.04.89 -
12 Larroza Nahuel 18 5 1998 AAMTE - 4.05.58 -
13 Lucas Leonardo Castro Rasgado 30 9 1994 DEFEN ASOCA 4.05.64 -
14 Velazquez Conrado Jonas 4 6 1991 EBFAM - 4.06.29 -
15 Salguero Fernando 10 5 1993 PGARI 4.07.24 -
16 Schnaider Federico 26 4 1997 ATERU ARDA 4.07.35 -
17 Santiago Augusto 24 12 1991 UNLPL APLAT 4.07.63 -
18 Paineo Emilio 3 2 1999 UAJGR - 4.08.48 -
19 Kucher Hernan 24 4 1993 L�FA - 4.09.01 -
20 Gauna Brian Miguel 15 2 1994 JMCOR FMARP 4.09.21 -
21 Holzmann Juan Pablo 2 2 1995 LCFAM - 4.09.37 -
22 Sosa Pablo Ezequiel 3 1 1986 UNLPL APLAT 4.10.05 -
23 Brian Alan Sasso 23 4 2000 MFV - 4.10.98 -
24 Russo Franco 30 7 1994 AAMTE - 4.11.30 -
25 Cordoba Joaquin 19 11 2001 JMCOR FMARP 4.11.50 -
26 Anca Ricardo 24 9 1996 ALFLA AJUN 4.12.22 -
27 Quiroga Facundo 14 05 2000 EMART AADV 4.12.30 -
28 Romero Matias 24 11 2001 JMCOR FMARP 4.13.39 -
29 Garcia Diego Adriel 7 11 1983 FCMAX - 4.14.76 -
30 Flores Paulo 1 4 2000 L�FA - 4.14.83 -
31 Fairhurst Agosta Leonardo David 10 5 1993 CADAF - 4.15.15 -
32 Perez Fabian Enzo 28 12 1994 AAY - 4.15.37 -
33 Escobar Lautaro 9 6 2001 CEF61 - 4.15.65 -
34 Fernandez Joaquin Ignacio 23 8 1991 L�FA - 4.15.77 -
35 Argaaraz Ballester Guillermo Miguel 16 3 1992 L�FA - 4.15.92 -
36 Johnson Carlos Augusto 7 6 1997 VYR ASA 4.16.43 -
37 Ullua Tomas 21 10 1996 ATERU ARDA 4.16.68 -
38 Cilenti Kevin Maximiliano 6 10 1992 CASLA - 4.17.58 -
39 Salazar Fernando Agustin 2 8 1997 CTSC - 4.17.60 -
40 Lopez Lautaro Tadeo 11 7 1999 EMAPI - 4.20.77 -
41 Mamblona Thiago 7 3 2001 EMA - 4.23.26 -
42 Espini Dario 19 7 1981 FCMAX - 4.24.37 -
43 Jeremias Villalba 16 12 1995 EMA - 4.26.50 -
44 Sequeira Jonatan 4 4 1987 CASCM - 4.26.62 -
45 Veliz Nicolas 9 3 2000 MAB - 4.27.22 -
46 Heffner Ignacio 10 8 1999 ASCC AABAR 4.27.42 -
47 Domecq Sebastian 8 10 1996 AAY - 4.27.83 -
48 Jorge Mullett 18 6 1992 FTTAF - 4.27.91 -
49 Meza Juarez Ezequiel 15 6 2001 CADAF - 4.28.04 -
50 Manfe Juan Manuel 26 11 1997 FTTAF - 4.28.45 -
51 Furno Ivan 16 6 1997 FCMAX - 4.29.15 -
52 Battaglini Juan 16 9 1995 EMA - 4.29.24 -
53 Balda Santiago 19 4 2000 EMCDC - 4.29.35 -
54 Bustos Sebastian 1 7 1999 JMCOR FMARP 4.31.68 -
55 Gonzalez Maffeo Maximiliano 24 6 1990 AAY - 4.32.69 -
56 Perasso Walter Daniel 10 12 1994 ALFLA AJUN 4.32.95 -
57 Singh Rene 23 11 1992 EMSAL CENTR 4.33.76 -
58 Villalba Gaston 18 2 1988 FCMAX - 4.34.66 -
59 Castillo Emanuel Daniel 12 1 2000 ADR - 4.36.78 -
60 Martinez Elias 16 9 1994 AAMTE - 4.37.92 -
61 arce fernando 10 9 1980 AAPCH - 4.38.47 -
62 Fernandez Emmanuel 13 6 1986 JMCOR FMARP 4.39.77 -
63 Carrera Alan Gaston 8 7 1999 JMCOR FMARP 4.40.12 -
64 Aguirre Helguero Sebastian 12 4 1984 EBFAM FAM 4.41.76 -
65 Ariel Carrascosa 5 4 1977 AAY - 4.41.95 -
66 Gomez Echavarria Nicolas 21 8 1999 LCFAM - 4.42.37 -
67 Ferreyra Joaquin 26 6 2000 CMDB1 - 4.43.29 -
68 Mariano Graziano 22 12 1989 NCAF - 4.45.66 -
69 Haran Anibal 20 10 1977 ALFLA AJUN 4.46.81 -
70 Lema Lautaro Augusto 25 9 1990 MUAVE - 4.53.87 -
71 Sabate Juan Bernardo 30 4 1966 L�FA - 4.59.09 -
72 Talento Guillermo Ezequiel 27 12 1982 CACHI - 5.01.24 -
73 Caragiulo Sebastian 30 11 1980 CADAF - 5.17.75 -
74 Valerio Carlos 7 6 1974 L�FA - 5.18.51 -
75 Santiago Corderas 18 4 1985 AAY - 5.25.30 -
76 Florentin Cristian 24 4 1982 AAY - 5.34.52 -
99 Gutierrez Ivan 5 7 1990 PGARI - DNF
99 Villagra Denis Nahuel 29 5 1994 QUIRO - DNS
99 Coronel Cristian 18 2 1997 CTSC - DNF
99 Scavino Ivan 7 12 1998 AAGAB - DNS
99 Arguilea Mauricio Erick 15 8 1999 FTTAF - DNS
99 Rodriguez Gonzalo Emanuel 13 1 1989 EMAPI - DNS
99 Facundo Emiliano Mino 5 5 1999 EMACO ASCER DNS
99 Castro Pedro 23 10 1993 EBFAM - DNS